Regional Weather Roundup
Issued by NWS

Home | Current Version | Previous Version | Text Only | Print | Product List | Glossary Off
Versions: 1 2 3 4 5 6 7 8 9 10 11 12 13 14 15 16 17 18 19 20 21 22 23 24 25 26 27 28 29 30 31 32 33 34 35 36 37 38 39 40 41 42 43 44 45 46 47 48 49 50

000
ASUS43 KIND 291259
RWRIN

WEATHER ROUNDUP FOR INDIANA
NATIONAL WEATHER SERVICE INDIANAPOLIS IN
900 AM EDT FRI APR 29 2016

NOTE: "FAIR" INDICATES FEW OR NO CLOUDS BELOW 12,000 FEET WITH NO
SIGNIFICANT WEATHER AND/OR OBSTRUCTIONS TO VISIBILITY.

* - STATION DOES NOT REPORT WEATHER SUCH AS PRECIPITATION OR FOG.

+ - STATION NOT QUALITY CONTROLLED BY THE NATIONAL WEATHER SERVICE.
    USE DATA WITH CAUTION...ESPECIALLY DEWPOINT AND RELATIVE
    HUMIDITY OBSERVATIONS.

INZ001>003-010>013-019-020-291400-
NORTHWEST INDIANA

CITY           SKY/WX    TMP DP  RH WIND       PRES   REMARKS
GARY /AIRPORT/ CLOUDY    45  45 100 N9        30.08S FOG

$$

LMZ046-743>745-291400-
SOUTHERN LAKE MICHIGAN

STATION/POSITION TIME  TEMP    WIND        PRES    WAVE
                       AIR SEA DIR/SP/G            HT
                 (UTC) (F)     (DEG/KT/KT) (MB)    (FT)
BURNS HARBOR     1216   42     330/ 12/ 16 1018.6R
MICHIGAN CITY    1220   42     260/ 12/ 14   N/A

$$

INZ004-005-014>016-021>024-291400-
NORTH CENTRAL INDIANA

CITY           SKY/WX    TMP DP  RH WIND       PRES   REMARKS
ELKHART        CLOUDY    46  41  81 S3        30.05S
GOSHEN         CLOUDY    45  42  89 SE3       30.04S
PERU/GRISSOM   CLOUDY    50  50 100 NW8       30.02S FOG
SOUTH BEND     CLOUDY    47  42  83 W5        30.05S

$$

INZ006>009-017-018-025>027-291400-
NORTHEAST INDIANA

CITY           SKY/WX    TMP DP  RH WIND       PRES   REMARKS
ANGOLA *+      CLOUDY    45  32  61 E3        30.04R
FORT WAYNE     LGT RAIN  46  40  79 SW3       30.05R

$$

INZ028-029-035-036-043>045-051>053-291400-
WEST CENTRAL INDIANA

CITY           SKY/WX    TMP DP  RH WIND       PRES   REMARKS
CRAWFORDSVL +  CLOUDY    49  49 100 NW7       30.03F FOG
GREENCASTLE +  SUNNY     52  50  93 N8        30.02F
LAFAYETTE      CLOUDY    48  47  96 NW6       30.04F FOG
TERRE HAUTE    SUNNY     56  50  80 CALM      30.03F

$$

INZ030>032-037>040-046>048-054>057-064-065-291400-
CENTRAL INDIANA

CITY           SKY/WX    TMP DP  RH WIND       PRES   REMARKS
ANDERSON       CLOUDY    34  34 100 NW6       30.04  FOG     WCI  29
COLUMBUS       SUNNY     54  52  94 NW7       30.04S
INDIANAPOLIS   MOSUNNY   55  48  77 NW7       30.02F FOG
-EAGLE CREEK   SUNNY     55  49  80 NW8       30.02F
KOKOMO *+      CLOUDY    52  45  76 NW3       30.03S
SHELBYVILLE    SUNNY     57  50  77 NW10      30.02F

$$

INZ033-034-041-042-049-050-058-059-291400-
EAST CENTRAL INDIANA

CITY           SKY/WX    TMP DP  RH WIND       PRES   REMARKS
MUNCIE         CLOUDY    50  45  83 CALM      30.04R HAZE

$$

INZ060-061-067>069-081>083-085>088-291400-
SOUTHWEST INDIANA

CITY           SKY/WX    TMP DP  RH WIND       PRES   REMARKS
EVANSVILLE     SUNNY     59  52  77 NE5       30.05S
HUNTINGBURG *+ SUNNY     57  52  82 NE6       30.05S

$$

INZ062-063-066-070>080-084-089>092-291400-
SOUTH CENTRAL AND SOUTHEAST INDIANA

CITY           SKY/WX    TMP DP  RH WIND       PRES   REMARKS
BLOOMINGTON    SUNNY     56  48  74 NW3       30.02F
MADISON *+     SUNNY     55  46  71 W3        30.05F
SEYMOUR +      SUNNY     59  48  67 NW3       30.03F

$$





USA.gov is the U.S. government's official web portal to all federal, state and local government web resources and services.